Voltar ao catálogo

STARLINK-30985

AtivoComunicaçõesVLEO
NORAD 58493·PAYLOAD·🇺🇸 United States

Lançado Dec 3, 2023 de Cape Canaveral Space Force Station

Loading…

Próximas Passagens (próximas 24 horas)

TLE

AtualizadoSource: CelesTrak SupGP

Época: Sep 14, 2026, 21:30 UTC

1 58493C 23186W   26257.89631944  .00051561  00000+0  18675-2 0  2578
2 58493  43.0039  74.8824 0001776 271.0332 157.4752 15.27553475    18

Acompanhe STARLINK-30985 em tempo real com AllMySat

Download on the App Store